{"data":{"norad_id":69828,"epoch":"2026-09-19T19:58:06.826944Z","epoch_age_seconds":75467,"freshness":"FRESH","line1":"1 69828U 26154K   26262.83202346  .00003443  00000+0  11305-3 0  9993","line2":"2 69828  53.1576 335.0118 0003076  19.8436 340.2686 15.34388355 13132","mean_motion":15.34388355,"eccentricity":0.0003076,"inclination_deg":53.1576,"raan_deg":335.0118,"arg_perigee_deg":19.8436,"mean_anomaly_deg":340.2686,"bstar":0.00011305,"rev_number":1313,"period_min":93.84847032419,"perigee_km":460.63359871566,"apogee_km":464.8421049245,"semimajor_km":6840.8748518201,"source":"CELESTRAK","updated_at":"2026-09-20T09:00:44.293093Z"}}